Weather in Likino

Russia / Sverdlovsk Oblast     59°51′02″N   61°39′20″E
temp.,
°C
wind,
m/s
gust,
m/s
humid.,
%
clouds,
%
prec.,
mm/h
press.,
hPa
HPBL,
m
18 may, tue
tue1823:00+15nw228134 0.4 101220
02:00+13nnw229175 0.4 101253
05:00+12n3896100 0.4 1014414
08:00+11n4791100 0.3 1017617
11:00+12n478097 0.5 1019725
14:00+16n455793 0.0 10201304
17:00+15nne4652100 0.0 10211567
20:00+15wnw01554 0.0 102113
19 may, wed
wed1923:00+10se377544 0.0 1024154
02:00+8sse22845 0.0 102515
05:00+7s118495 0.0 102610
08:00+14sw015525 0.0 1026427
11:00+18ene114148 0.0 10261400
14:00+21ene01355 0.0 10251883
17:00+22s0235100 0.0 10231935
20:00+17sse2451100 0.0 102269
20 may, thu
thu2023:00+13s3861100 0.0 1022146
02:00+12sw31161100 0.0 1022221
05:00+11wsw2571100 0.0 102195
08:00+19w46485 0.0 1020309
11:00+25w35330 0.0 10191471
14:00+27wnw34280 0.0 10182000
17:00+28nw23265 0.0 10182287
20:00+23n12445 0.0 101812
21 may, fri
fri2123:00+18w11505 0.0 101811
02:00+16wnw11565 0.0 101811
05:00+15w11625 0.0 101911
08:00+22wsw11455 0.0 1019234
11:00+27sw233010 0.0 10181492
14:00+29sw342220 0.0 10172421
17:00+29sw35225 0.0 10162632
20:00+24s22405 0.0 101519
22 may, sat
sat2223:00+19ssw39505 0.0 1016152
02:00+16wsw22570 0.0 101621
05:00+15sw25610 0.0 101792
08:00+22sw37485 0.0 1016411
11:00+25sw5103946 0.0 10152309
14:00+27sw693153 0.0 10153113
17:00+26w692945 0.0 10152935
20:00+22w3939100 0.0 1015408